Regional Weather Roundup
Issued by NWS

Home | Current Version | Previous Version | Text Only | Print | Product List | Glossary On
Versions: 1 2 3 4 5 6 7 8 9 10 11 12 13 14 15 16 17 18 19 20 21 22 23 24 25 26 27
000
ASPQ40 PGUM 200412
RWRPQ
WEATHER ROUNDUP FOR THE MARIANAS AND MICRONESIA
NATIONAL WEATHER SERVICE TIYAN GU
200 PM CHST MON NOV 20 2017

GUZ001>004-200500-
MARIANA ISLANDS-

CITY           SKY/WX    TMP DP  RH WIND       PRES   REMARKS
GUAM AIRPORT   PTSUNNY   88  73  62 NE15      29.77F HX  96
ANDERSEN AFB   MOSUNNY   84  72  65 NE17      29.77F
ROTA AIRPORT   MOSUNNY   84  73  70 NE15G22   29.77F HX  91
TINIAN AP      MOSUNNY   86  73  66 NE14      29.76F HX  93
SAIPAN AP      PTSUNNY   88  73  62 NE14      29.77F HX  96

$$

PMZ161-200500-
REPUBLIC OF PALAU-

CITY           SKY/WX    TMP DP  RH WIND       PRES   REMARKS
KOROR AP       PTSUNNY   88  79  74 E16       29.73F HX 102
KOROR WSO      CLOUDY    90  81  74 E9        29.74F HX 108

$$

PMZ171>174-200500-
FEDERATED STATES OF MICRONESIA-

CITY           SKY/WX    TMP DP  RH WIND       PRES   REMARKS
YAP AIRPORT    PTSUNNY   88  79  74 VRB7      29.74F HX 102
CHUUK AP       PTSUNNY   88  77  70 N10       29.69F HX 100
POHNPEI AP     NOT AVBL
POHNPEI WSO    CLOUDY    79  75  89 CALM      29.73F
KOSRAE AP      CLOUDY    84  77  79 SW14      29.69F HX  94

$$

PMZ181-200500-
REPUBLIC OF THE MARSHALL ISLANDS-

CITY           SKY/WX    TMP DP  RH WIND       PRES   REMARKS
KWAJALEIN AP   CLOUDY    84  77  79 E14       29.75R HX  94
MAJURO AP      CLOUDY    81  77  89 S7        29.77R
MAJURO WSO     CLOUDY    79  75  89 CALM      29.75R

$$





USA.gov is the U.S. government's official web portal to all federal, state and local government web resources and services.